Location: Ar Ranvel
(48.3000°N, 4.8833°W)
Time: 21:17:39
(UTC+00:00)

Meteor 2-10 Rocket - Pass Details

Date: 03 November 2021
Orbit: 733 x 885 km, 81.2° (Epoch: 30 November)

Event Time Altitude Azimuth Distance (km) Brightness Sun altitude
Exits shadow 05:30:13 27° 292° (WNW) 1,395 4.3 -16.7°
Maximum altitude 05:31:16 29° 270° (W) 1,322 4.1 -16.5°
Drops below altitude 10° 05:35:35 10° 210° (SSW) 2,256 5.7 -15.8°
Sets 05:38:11 0° 200° (SSW) 3,192 6.6 -15.3°
